map of TZL home
TZL - Airport
Location
City:  Tuzla, Bosnia and Herzegovina
Name:Tuzla International Airport
ICAO:LQTZ
IATA:TZL

Details
Type:Airport (Aerodrome, Airfield)
Use:Public/Civil, Military, International (customs port of entry)
Latitude:4427'31"N (44.458656)
Longitude:1843'29"E (18.724783)
Datum:WGS 1984
Elevation:784 ft (239 m)
Variation:4.47E (WMM2015 magnetic declination)
0.11 annual change
Runways:1
Longest:8152 × 148 ft (2485 × 45 m), paved

Time
Time Zone:UTC+1 (DST+2)
Local Time:

Weather
METAR:LQTZ 161430Z VRB02KT CAVOK 05/M04 Q1016
TAF:LQTZ 151700Z 1518/1618 30006KT CAVOK TX07/1613Z TNM03/1605Z PROB40
TEMPO 1600/1607 2500 BR PROB30
TEMPO 1603/1607 0200 FZFG BKN001

Related Locations
Nearby:
Farthest:CHT: 11685 mi / 18806 km
Waitangi [Tuuta], CIT, NZ

Find:

   beyond  
but within

Other Information
Maps:
NOTAMs:
Links:
Sources:

  
  • flag of Bosnia and Herzegovina
  

Airport Diagram

Airport diagram for TZL

Larger airport diagram (OBSOLETE) from NGA

Sectional Chart

Flight Planning
at skyvector.com

Satellite Image

Google Maps Satellite view

 

Copyright © 2004-2019 Karl L. Swartz. All rights reserved.
The Great Circle Mapper name and logo are trademarks of the Great Circle Mapper.
All other trademarks mentioned herein belong to their respective owners.
Please see credits for attibutions and further copyright information.

  Follow gcmap on Facebook Follow gcmap on Twitter Follow gcmap on Google+ GCmap on LinkedIn

hCard Microformat

Geo Microformat